Flag Weather past 2 weeks in Mbabane, Swaziland

Now
72 °F

Broken clouds.


Feels Like: 69 °F
Forecast: 56 / 67 °F
Wind: 3 mph from South

Location: Maputo / Mavalane

Current Time: Oct 31, 2014 at 6:51:54 AM

Latest Report: Oct 31, 2014 at 6:00 AM


Visibility: N/A

Pressure: 30.07 "Hg

Humidity: 88%

Dew point: 68 °F

Location of MbabaneLocation

Historic Weather in Mbabane — Graph

°F

Mbabane temperature yesterday

Maximum temperature yesterday: 86 °F (at 11:00 AM)
Minimum temperature yesterday: 64 °F (at 5:00 AM)
Average temperature yesterday: 76 °F

Past Weeks' High & Low Weather Summary

 TemperatureHumidityPressure
High86 °F (Oct 30, 11:00 AM)100% (Oct 17, 1:00 AM)30.30 "Hg (Oct 17, 1:00 AM)
Low59 °F (Oct 19, 5:00 AM)32% (Oct 17, 4:00 PM)29.59 "Hg (Oct 16, 8:00 PM)
Average72 °F65%30.05 "Hg
* Reported Oct 16 5:00 AM — Oct 31 5:00 AM, Mbabane, Weather by CustomWeather, © 2014

Note: Actual official high and low records may vary slightly from our data, if they occured in-between our weather recording intervals... More about our weather records

Advertising

Mbabane weather history for previous 24 hours

 ConditionsComfort  
Time TempWeatherWind HumidityBarometerVisibility
5:00 AM
Oct 31
72 °FPartly sunny.9 mph83%30.04 "HgN/A
4:00 AM73 °FPassing clouds.10 mph83%30.01 "HgN/A
2:00 AM73 °FPassing clouds.6 mph83%29.98 "HgN/A
1:00 AM73 °FPassing clouds.5 mph83%29.98 "HgN/A
12:00 AM73 °FPassing clouds.7 mph89%29.98 "HgN/A
11:00 PM
Oct 30
75 °FPassing clouds.8 mph78%29.98 "HgN/A
10:00 PM75 °FPassing clouds.10 mph78%29.95 "HgN/A
9:00 PM75 °FPassing clouds.14 mph83%29.92 "HgN/A
8:00 PM75 °FPassing clouds.13 mph83%29.89 "HgN/A
7:00 PM75 °FPassing clouds.10 mph78%29.89 "HgN/A
6:00 PM75 °FPassing clouds.18 mph78%29.86 "HgN/A
5:00 PM79 °FPassing clouds.18 mph65%29.83 "HgN/A
4:00 PM81 °FPassing clouds.21 mph62%29.83 "HgN/A
3:00 PM82 °FPassing clouds.21 mph58%29.83 "HgN/A
1:20 PM84 °FSunny.18 mph55%29.83 "Hg10 mi
1:00 PM84 °FSunny.17 mph55%29.86 "Hg10 mi
12:00 PM86 °FPassing clouds.18 mph52%29.89 "HgN/A
11:00 AM86 °FPassing clouds.14 mph43%29.92 "HgN/A
10:00 AM84 °FPassing clouds.15 mph45%29.95 "HgN/A
9:00 AM81 °FScattered clouds.15 mph54%29.98 "HgN/A
8:00 AM75 °FScattered clouds.16 mph65%29.98 "HgN/A
6:00 AM68 °FPassing clouds.6 mph83%29.98 "HgN/A
Weather by CustomWeather, © 2014

See weather overviewHow to use our weather pages